PBO Station Position Time Series. Reference Frame : NAM14
Format Version,1.1.0
4-character ID,P576
Station name,GallegosRnCS2004
Begin Date, 2004-01-16
End Date, 2019-10-07
Release Date, 2019-10-08
Reference position, 35.6696623397 North Latitude, -120.9700007495 East Longitude, 324.40782 meters elevation,
Date, North (mm), East (mm), Vertical (mm), North Std. Deviation (mm), East Std. Deviation (mm),              Vertical Std. Deviation (mm), Quality,
2004-01-16,0.00, 0.00, 0.00, 2.58, 2.02, 9.89, repro,
2004-01-17,1.23, -0.32, 6.56, 2.26, 1.88, 8.98, repro,
2004-01-18,1.11, 0.44, 3.34, 2.31, 1.85, 8.81, repro,
2004-01-19,-1.36, 0.87, 5.69, 2.18, 1.81, 8.65, repro,
2004-01-20,-1.47, -0.25, -8.58, 2.41, 1.88, 9.14, repro,
2004-01-21,-3.26, 0.31, 1.37, 2.33, 1.89, 9.13, repro,
2004-01-22,-2.28, 0.19, -1.32, 2.30, 1.83, 8.92, repro,
2004-01-23,-0.23, -0.95, -8.34, 2.22, 1.84, 8.93, repro,
2004-01-24,-2.83, 0.33, -6.66, 2.27, 1.86, 8.88, repro,
2004-01-25,-3.02, -0.61, -4.38, 2.26, 1.87, 8.93, repro,
2004-01-26,-5.16, 0.10, 9.31, 2.20, 1.76, 8.69, repro,
2004-01-27,-2.96, -2.23, -7.20, 2.29, 1.95, 9.27, repro,
2004-01-28,-4.67, -1.16, -15.03, 2.32, 1.96, 9.23, repro,
2004-01-29,-4.43, -0.77, 11.23, 2.44, 1.94, 9.30, repro,
2004-01-30,-5.43, -1.53, 10.91, 2.27, 1.88, 9.16, repro,
2004-01-31,-5.45, -1.64, 4.22, 2.22, 1.82, 8.75, repro,
2004-02-01,-7.73, -1.85, 1.93, 2.11, 1.74, 8.53, repro,
2004-02-02,-7.80, -1.95, -10.20, 2.24, 1.84, 8.97, repro,
2004-02-03,-6.11, -4.06, -5.81, 2.29, 1.92, 9.15, repro,
2004-02-04,-6.56, -1.33, -1.26, 2.36, 1.96, 9.38, repro,
2004-02-05,-9.65, -0.92, 13.12, 2.22, 1.86, 8.85, repro,
2004-02-06,-6.73, -0.10, 2.19, 2.25, 1.89, 9.23, repro,
2004-02-07,-7.28, -2.95, 10.16, 2.27, 1.88, 8.99, repro,
2004-02-08,-7.40, -1.95, -2.55, 2.30, 1.83, 8.96, repro,
2004-02-09,-9.71, -1.71, 5.49, 2.27, 1.91, 9.20, repro,
2004-02-10,-8.38, -1.97, 12.79, 2.28, 1.92, 9.32, repro,
2004-02-11,-10.01, -2.22, 6.42, 2.40, 1.99, 9.16, repro,
2004-02-12,-9.45, -2.42, 0.83, 2.22, 1.86, 8.87, repro,
2004-02-13,-11.97, -2.94, 11.07, 2.32, 1.95, 9.61, repro,
2004-02-14,-8.50, -3.10, -1.04, 2.41, 1.94, 9.82, repro,
2004-02-15,-8.08, -2.51, -5.09, 2.32, 1.90, 9.70, repro,
2004-02-16,-13.61, -4.60, -4.80, 2.31, 1.87, 9.31, repro,
2004-02-17,-13.16, -3.75, -16.88, 2.33, 1.92, 9.40, repro,
2004-02-18,-11.73, -5.51, -11.82, 2.26, 1.84, 9.31, repro,
2004-02-19,-10.28, -2.75, 2.96, 2.21, 1.80, 8.94, repro,
2004-02-20,-9.92, -2.73, 5.07, 2.42, 1.95, 9.64, repro,
2004-02-21,-11.17, -3.09, 2.46, 2.33, 1.90, 8.95, repro,
2004-02-22,-13.32, -3.56, 6.19, 2.38, 1.92, 9.05, repro,
2004-02-23,-10.41, -5.68, 0.90, 2.71, 2.24, 11.10, repro,
2004-02-24,-11.32, -4.71, 4.77, 2.26, 1.79, 8.70, repro,
2004-02-25,-12.42, -4.62, 4.54, 2.29, 1.89, 9.25, repro,
2004-02-26,-9.11, -4.17, -21.71, 2.30, 1.92, 9.12, repro,
2004-02-27,-11.99, -3.92, 6.54, 2.34, 1.84, 8.82, repro,
2004-02-28,-12.52, -2.60, -2.01, 2.39, 1.97, 9.25, repro,
2004-02-29,-10.57, -1.50, -3.21, 2.32, 1.82, 8.77, repro,
2004-03-01,-13.05, -1.92, 0.64, 2.35, 1.97, 9.44, repro,
2004-03-02,-11.96, -3.84, 1.90, 2.28, 1.88, 8.96, repro,
2004-03-03,-12.69, -4.14, -3.62, 2.27, 1.92, 8.91, repro,
2004-03-04,-11.58, -4.22, 3.42, 2.43, 1.92, 9.18, repro,
2004-03-05,-12.53, -3.38, 6.81, 2.29, 1.91, 9.11, repro,
2004-03-06,-12.17, -1.45, -1.20, 2.34, 1.85, 9.00, repro,
2004-03-07,-12.53, -0.31, -1.79, 2.37, 1.94, 9.25, repro,
2004-03-08,-13.53, -1.45, -3.57, 2.31, 1.98, 9.32, repro,
2004-03-09,-12.60, -3.54, -4.80, 2.31, 1.94, 8.84, repro,
2004-03-10,-12.45, -1.46, 5.15, 2.33, 1.83, 8.88, repro,
2004-03-11,-13.34, -2.20, 6.38, 2.23, 1.83, 8.87, repro,
2004-03-12,-15.81, -2.61, 11.13, 2.33, 1.83, 8.88, repro,
2004-03-13,-14.09, 0.84, -4.50, 2.40, 1.98, 9.44, repro,
2004-03-14,-13.91, -2.92, -4.65, 2.32, 1.92, 9.10, repro,
2004-03-15,-13.30, -1.51, -2.70, 2.24, 1.84, 8.93, repro,
2004-03-16,-14.87, -3.67, 4.69, 2.26, 1.86, 9.14, repro,
2004-03-17,-15.41, -1.20, 18.03, 2.35, 1.85, 9.29, repro,
2004-03-18,-16.45, -1.38, 10.54, 2.47, 1.89, 9.68, repro,
2004-03-19,-15.32, -0.73, 12.85, 2.39, 1.99, 9.64, repro,
2004-03-20,-16.68, -0.54, 7.30, 2.73, 2.14, 10.60, repro,
2004-03-21,-15.72, -3.01, -5.50, 2.29, 1.90, 9.29, repro,
2004-03-22,-17.74, -1.30, 4.23, 2.43, 1.89, 9.48, repro,
2004-03-23,-17.72, -3.73, 17.13, 2.39, 1.97, 9.63, repro,
2004-03-24,-18.09, -0.71, 14.82, 2.58, 2.03, 10.20, repro,
2004-03-25,-16.74, -0.42, 1.09, 2.55, 2.10, 10.64, repro,
2004-03-26,-18.84, -3.19, 21.56, 2.44, 1.98, 9.94, repro,
2004-03-27,-16.62, -2.58, 7.91, 2.27, 1.85, 9.20, repro,
2004-03-28,-16.64, -2.81, 12.68, 2.37, 1.93, 9.55, repro,
2004-03-29,-19.14, -2.42, 16.83, 2.70, 2.31, 11.28, repro,
2004-03-30,-17.61, -3.20, 2.92, 2.46, 2.00, 9.79, repro,
2004-03-31,-16.95, -1.84, 6.19, 2.34, 1.91, 9.37, repro,
2004-04-01,-17.17, -2.77, -1.63, 2.29, 1.83, 9.11, repro,
2004-04-02,-17.39, -2.02, 8.19, 2.24, 1.83, 8.94, repro,
2004-04-03,-18.99, -3.37, 7.36, 2.26, 1.87, 9.04, repro,
2004-04-04,-20.12, -3.35, 14.32, 2.28, 1.88, 9.22, repro,
2004-04-05,-18.92, -3.33, 9.33, 2.36, 1.91, 9.44, repro,
2004-04-06,-17.30, -2.37, 2.19, 2.25, 1.81, 8.86, repro,
2004-04-07,-19.07, -2.67, 4.93, 2.35, 1.90, 9.37, repro,
2004-04-08,-18.41, -3.03, 4.31, 2.31, 1.85, 8.92, repro,
2004-04-09,-19.14, -2.66, 3.65, 2.22, 1.79, 8.71, repro,
2004-04-10,-19.56, -3.85, 7.77, 2.29, 1.83, 8.84, repro,
2004-04-11,-18.56, -4.46, 8.53, 2.31, 1.83, 8.88, repro,
2004-04-12,-17.81, -3.05, -2.19, 2.35, 1.87, 9.28, repro,
2004-04-13,-19.56, -4.44, 6.11, 2.29, 1.79, 8.93, repro,
2004-04-14,-19.62, -4.14, 7.61, 2.21, 1.77, 8.71, repro,
2004-04-15,-20.34, -3.94, 5.97, 2.20, 1.77, 8.66, repro,
2004-04-16,-19.97, -4.55, 11.05, 2.23, 1.75, 8.49, repro,
2004-04-17,-20.13, -6.05, 5.97, 2.32, 1.84, 9.31, repro,
2004-04-18,-21.06, -5.00, 11.91, 2.23, 1.78, 8.75, repro,
2004-04-19,-19.53, -2.98, 8.97, 2.27, 1.81, 8.74, repro,
2004-04-20,-22.49, -5.75, 15.76, 2.34, 1.89, 9.33, repro,
2004-04-21,-20.98, -5.62, 24.60, 2.20, 1.75, 8.62, repro,
2004-04-22,-20.19, -4.45, 12.93, 2.40, 1.93, 9.26, repro,
2004-04-23,-22.02, -4.86, 20.12, 2.22, 1.75, 8.61, repro,
2004-04-24,-20.51, -4.01, 1.48, 2.30, 1.82, 8.85, repro,
2004-04-25,-18.94, -4.69, 7.81, 2.30, 1.84, 8.97, repro,
2004-04-26,-22.06, -4.47, 5.11, 2.18, 1.74, 8.49, repro,
2004-04-27,-22.32, -4.36, 16.09, 2.22, 1.79, 8.75, repro,
2004-04-28,-22.26, -5.12, 16.40, 2.33, 1.86, 9.09, repro,
2004-04-29,-23.65, -6.67, 9.54, 2.31, 1.80, 8.79, repro,
2004-04-30,-23.15, -6.70, 7.53, 2.25, 1.80, 8.74, repro,
2004-05-01,-23.35, -6.03, 11.64, 2.31, 1.81, 9.18, repro,
2004-05-02,-20.90, -4.71, 15.20, 2.32, 1.82, 9.36, repro,
2004-05-03,-24.76, -6.98, 13.72, 2.29, 1.88, 9.11, repro,
2004-05-04,-23.41, -7.12, 20.94, 2.42, 1.92, 9.38, repro,
2004-05-05,-24.43, -6.55, 12.37, 2.29, 1.91, 8.99, repro,
2004-05-06,-22.12, -5.88, 8.04, 2.54, 2.22, 10.45, repro,
2004-05-07,-25.03, -6.91, 12.15, 2.41, 1.97, 9.36, repro,
2004-05-08,-23.22, -7.12, 3.85, 2.32, 1.94, 9.28, repro,
2004-05-09,-23.50, -6.63, 1.45, 2.90, 2.29, 11.11, repro,
2004-05-10,-24.13, -5.39, 5.98, 2.84, 2.18, 10.68, repro,
2004-05-11,-22.36, -7.25, 20.11, 2.26, 1.87, 9.02, repro,
2004-05-12,-24.92, -7.89, 18.22, 2.57, 2.30, 10.35, repro,
2004-05-13,-23.30, -5.95, 10.50, 2.40, 2.07, 9.73, repro,
2004-05-14,-24.89, -7.84, 7.05, 2.34, 1.96, 9.31, repro,
2004-05-15,-25.51, -6.57, 20.81, 2.29, 1.84, 8.68, repro,
2004-05-16,-24.88, -8.66, 18.49, 2.38, 1.95, 9.17, repro,
2004-05-17,-24.54, -10.22, 4.50, 2.36, 1.94, 8.99, repro,
2004-05-18,-25.23, -9.55, 8.05, 2.24, 1.81, 8.66, repro,
2004-05-19,-26.12, -11.06, 8.25, 2.59, 2.11, 10.54, repro,
2004-05-20,-25.04, -7.74, 12.30, 2.41, 1.83, 8.93, repro,
2004-05-21,-26.40, -9.14, 6.18, 2.53, 2.06, 9.77, repro,
2004-05-22,-27.81, -9.96, 11.79, 2.22, 1.74, 8.49, repro,
2004-05-23,-26.58, -9.93, 14.86, 2.19, 1.81, 8.77, repro,
2004-05-24,-24.22, -10.38, 11.19, 2.38, 1.92, 9.19, repro,
2004-05-25,-26.40, -10.41, 16.16, 2.20, 1.76, 8.68, repro,
2004-05-26,-26.61, -9.58, 12.68, 2.20, 1.75, 8.64, repro,
2004-05-27,-27.28, -10.14, 14.20, 2.27, 1.87, 8.89, repro,
2004-05-28,-26.42, -10.54, 11.20, 2.31, 1.94, 9.23, repro,
2004-05-29,-26.97, -11.27, 8.19, 2.31, 1.85, 8.84, repro,
2004-05-30,-25.88, -9.11, 13.12, 2.40, 1.95, 9.24, repro,
2004-05-31,-27.46, -11.70, 7.98, 2.19, 1.74, 8.59, repro,
2004-06-01,-26.14, -9.70, 8.72, 2.23, 1.77, 8.54, repro,
2004-06-02,-28.57, -10.84, 6.60, 2.24, 1.79, 8.83, repro,
2004-06-03,-28.90, -10.29, 12.37, 2.26, 1.85, 8.89, repro,
2004-06-04,-25.17, -9.74, 3.64, 2.20, 1.76, 8.43, repro,
2004-06-05,-27.14, -12.53, 6.86, 2.36, 1.91, 9.13, repro,
2004-06-06,-27.50, -10.19, 12.47, 2.19, 1.83, 8.79, repro,
2004-06-07,-27.35, -10.92, 15.11, 2.26, 1.83, 8.88, repro,
2004-06-08,-28.77, -11.87, 2.66, 2.32, 1.89, 9.27, repro,
2004-06-09,-29.48, -11.64, 16.93, 2.17, 1.75, 8.30, repro,
2004-06-10,-27.49, -10.99, 12.25, 2.24, 1.79, 8.81, repro,
2004-06-11,-29.09, -12.56, 12.72, 2.16, 1.75, 8.58, repro,
2004-06-12,-30.41, -12.25, 16.04, 2.33, 1.83, 9.09, repro,
2004-06-13,-30.57, -12.90, 9.27, 2.27, 1.80, 8.87, repro,
2004-06-14,-29.45, -12.90, 6.85, 2.38, 1.94, 9.50, repro,
2004-06-15,-29.45, -11.24, 17.97, 2.33, 1.87, 9.21, repro,
2004-06-16,-30.27, -13.08, 5.71, 2.35, 1.87, 9.21, repro,
2004-06-17,-29.08, -12.47, 4.37, 2.30, 1.85, 8.91, repro,
2004-06-18,-29.47, -11.83, 1.19, 2.29, 1.80, 8.79, repro,
2004-06-19,-28.56, -12.39, -0.69, 2.26, 1.83, 8.86, repro,
2004-06-20,-29.99, -12.67, 14.16, 2.24, 1.83, 8.91, repro,
2004-06-21,-30.20, -14.03, 6.30, 2.32, 1.87, 9.04, repro,
2004-06-22,-30.45, -13.66, 14.98, 2.22, 1.77, 8.80, repro,
2004-06-23,-29.48, -11.95, 1.71, 2.31, 1.83, 9.03, repro,
2004-06-24,-31.61, -15.13, 8.87, 2.19, 1.82, 8.72, repro,
2004-06-25,-29.69, -14.71, 4.57, 2.37, 1.89, 9.26, repro,
2004-06-26,-30.84, -13.48, 5.94, 2.21, 1.77, 8.49, repro,
2004-06-27,-31.46, -14.11, 8.51, 2.22, 1.78, 8.69, repro,
2004-06-28,-30.32, -13.48, 0.01, 2.28, 1.80, 8.85, repro,
2004-06-29,-30.14, -12.90, 0.02, 2.37, 1.91, 9.00, repro,
2004-06-30,-31.70, -14.19, 4.22, 2.28, 1.86, 8.81, repro,
2004-07-01,-31.11, -14.39, 3.79, 2.22, 1.80, 8.53, repro,
2004-07-02,-31.06, -13.02, 2.83, 2.28, 1.80, 8.66, repro,
2004-07-03,-30.96, -12.86, 7.16, 2.34, 1.87, 9.03, repro,
2004-07-04,-32.71, -14.29, 10.22, 2.31, 1.84, 8.72, repro,
2004-07-05,-30.46, -14.03, -3.83, 2.21, 1.79, 8.58, repro,
2004-07-06,-31.94, -14.21, 10.19, 2.31, 1.83, 8.72, repro,
2004-07-07,-30.84, -13.36, 3.21, 2.44, 1.93, 9.42, repro,
2004-07-08,-31.69, -16.02, 7.29, 2.22, 1.79, 8.56, repro,
2004-07-09,-30.66, -13.72, 11.14, 2.22, 1.78, 8.60, repro,
2004-07-10,-32.00, -14.52, 0.71, 2.20, 1.77, 8.53, repro,
2004-07-11,-31.72, -16.94, -1.32, 2.29, 1.81, 8.78, repro,
2004-07-12,-30.53, -15.03, 2.43, 2.33, 1.85, 9.05, repro,
2004-07-13,-30.70, -14.60, 2.51, 2.25, 1.78, 8.52, repro,
2004-07-14,-30.70, -14.57, 1.76, 2.22, 1.84, 8.77, repro,
2004-07-15,-31.95, -13.55, 2.02, 2.24, 1.80, 8.72, repro,
2004-07-16,-33.59, -15.52, 11.87, 2.45, 1.97, 9.80, repro,
2004-07-17,-30.89, -18.23, 4.01, 2.23, 1.78, 8.68, repro,
2004-07-18,-32.60, -15.27, 13.44, 2.29, 1.84, 8.97, repro,
2004-07-19,-33.40, -15.91, 6.84, 2.27, 1.84, 8.76, repro,
2004-07-20,-32.52, -17.69, 8.87, 2.27, 1.90, 8.96, repro,
2004-07-21,-32.35, -15.81, 0.04, 2.16, 1.84, 8.64, repro,
2004-07-22,-32.24, -16.96, 7.67, 2.16, 1.77, 8.52, repro,
2004-07-23,-32.50, -15.18, 10.40, 2.11, 1.74, 8.30, repro,
2004-07-24,-33.46, -16.55, 6.62, 2.29, 1.91, 8.90, repro,
2004-07-25,-33.89, -16.43, 12.10, 2.12, 1.73, 8.19, repro,
2004-07-26,-32.86, -17.02, -1.04, 2.16, 1.75, 8.37, repro,
2004-07-27,-33.08, -15.20, -1.91, 2.15, 1.77, 8.50, repro,
2004-07-28,-33.00, -17.13, 9.52, 2.24, 1.84, 8.84, repro,
2004-07-29,-33.78, -15.50, 10.62, 2.19, 1.81, 8.49, repro,
2004-07-30,-33.75, -17.20, 9.34, 2.12, 1.73, 8.22, repro,
2004-07-31,-35.70, -16.17, 7.32, 2.11, 1.77, 8.29, repro,
2004-08-01,-33.55, -16.84, 2.10, 2.24, 1.85, 8.79, repro,
2004-08-02,-35.34, -18.08, 3.00, 2.21, 1.78, 8.42, repro,
2004-08-03,-33.49, -16.66, 6.32, 2.21, 1.77, 8.47, repro,
2004-08-04,-34.94, -18.67, 12.51, 2.15, 1.72, 8.22, repro,
2004-08-05,-35.25, -16.35, 6.86, 2.14, 1.79, 8.40, repro,
2004-08-06,-34.64, -17.93, 2.55, 2.16, 1.82, 8.53, repro,
2004-08-07,-33.01, -17.51, 0.29, 2.20, 1.82, 8.81, repro,
2004-08-08,-32.89, -17.98, 9.73, 2.22, 1.86, 8.76, repro,
2004-08-09,-34.46, -18.16, 3.54, 2.22, 1.80, 8.46, repro,
2004-08-10,-34.97, -18.53, 5.18, 2.10, 1.72, 8.13, repro,
2004-08-11,-34.80, -18.19, 1.10, 2.12, 1.74, 8.25, repro,
2004-08-12,-34.51, -17.03, 10.54, 2.12, 1.78, 8.50, repro,
2004-08-13,-35.13, -18.99, -1.08, 2.15, 1.81, 8.50, repro,
2004-08-14,-36.94, -19.94, 6.34, 2.14, 1.79, 8.41, repro,
2004-08-15,-34.17, -18.33, 4.88, 2.14, 1.77, 8.32, repro,
2004-08-16,-34.81, -18.69, 2.77, 2.17, 1.83, 8.67, repro,
2004-08-17,-34.37, -18.65, -1.87, 2.31, 1.87, 9.07, repro,
2004-08-18,-33.43, -19.25, 6.78, 2.22, 1.78, 8.47, repro,
2004-08-19,-34.66, -18.43, 0.25, 2.15, 1.76, 8.29, repro,
2004-08-20,-35.59, -18.89, 1.19, 2.19, 1.80, 8.55, repro,
2004-08-21,-34.94, -18.40, -2.22, 2.21, 1.86, 8.81, repro,
2004-08-22,-36.84, -18.16, 2.37, 2.18, 1.74, 8.45, repro,
2004-08-23,-34.98, -18.11, 1.43, 2.16, 1.76, 8.53, repro,
2004-08-24,-33.74, -17.33, 0.53, 2.24, 1.85, 8.81, repro,
2004-08-25,-34.93, -18.63, 2.22, 2.19, 1.81, 8.53, repro,
2004-08-26,-35.01, -17.60, 5.16, 2.20, 1.83, 8.71, repro,
2004-08-27,-37.06, -18.31, 10.02, 2.20, 1.80, 8.68, repro,
2004-08-28,-36.59, -18.18, 8.78, 2.17, 1.85, 8.68, repro,
2004-08-29,-34.06, -18.20, -2.04, 2.28, 1.88, 8.91, repro,
2004-08-30,-34.50, -17.42, -1.07, 2.18, 1.87, 8.67, repro,
2004-08-31,-35.73, -18.48, -2.15, 2.21, 1.86, 8.65, repro,
2004-09-01,-35.65, -19.51, 5.35, 2.29, 2.02, 9.58, repro,
2004-09-02,-37.41, -18.16, 4.19, 2.36, 1.83, 8.80, repro,
2004-09-03,-37.16, -18.05, 7.42, 2.28, 1.85, 8.82, repro,
2004-09-04,-35.72, -17.97, 2.96, 2.22, 1.82, 8.71, repro,
2004-09-05,-35.56, -18.52, -0.21, 2.16, 1.83, 8.65, repro,
2004-09-06,-35.82, -18.11, 9.73, 2.73, 2.09, 10.68, repro,
2004-09-07,-36.79, -17.82, 6.22, 2.34, 1.93, 9.21, repro,
2004-09-08,-35.80, -17.59, 2.02, 2.55, 2.14, 10.01, repro,
2004-09-09,-37.15, -17.63, 16.35, 2.18, 1.87, 8.91, repro,
2004-09-10,-35.38, -17.78, 4.19, 2.17, 1.81, 8.81, repro,
2004-09-11,-36.09, -18.47, 4.01, 2.11, 1.74, 8.31, repro,
2004-09-12,-34.22, -18.32, 7.88, 2.28, 2.00, 9.46, repro,
2004-09-13,-36.64, -18.39, 4.80, 2.34, 1.87, 9.03, repro,
2004-09-14,-36.53, -18.15, 11.77, 2.33, 1.90, 9.15, repro,
2004-09-15,-35.67, -18.74, 0.02, 2.18, 1.85, 8.90, repro,
2004-09-16,-36.55, -17.32, 5.45, 2.17, 1.83, 8.75, repro,
2004-09-17,-36.86, -17.86, 2.54, 2.21, 1.84, 8.78, repro,
2004-09-18,-35.62, -17.07, -4.95, 2.12, 1.77, 8.32, repro,
2004-09-19,-33.79, -19.82, -9.94, 2.59, 2.11, 9.82, repro,
2004-09-20,-36.53, -19.25, 4.33, 2.23, 1.82, 8.80, repro,
2004-09-21,-37.16, -17.57, 1.89, 2.17, 1.81, 8.61, repro,
2004-09-22,-35.00, -16.86, -5.64, 2.32, 1.86, 8.94, repro,
2004-09-23,-35.07, -17.83, -5.52, 2.19, 1.88, 8.78, repro,
2004-09-24,-37.60, -18.21, 4.45, 2.30, 1.94, 8.90, repro,
2004-09-25,-36.71, -17.61, -7.00, 2.26, 1.86, 8.71, repro,
2004-09-26,-37.54, -17.16, -4.04, 2.17, 1.84, 8.64, repro,
2004-09-27,-36.37, -16.76, -3.95, 2.17, 1.84, 8.78, repro,
2004-09-28,-36.70, -18.21, -2.55, 2.17, 1.74, 8.25, repro,
2004-09-29,-40.53, -19.07, -4.97, 2.27, 1.80, 8.47, repro,
2004-09-30,-41.41, -21.43, -2.11, 2.15, 1.77, 8.41, repro,
2004-10-01,-39.59, -21.00, -8.73, 2.52, 2.05, 10.00, repro,
2004-10-02,-39.88, -19.94, -7.47, 2.35, 1.92, 9.24, repro,
2004-10-03,-41.53, -21.40, 2.26, 2.12, 1.75, 8.40, repro,
2004-10-04,-40.72, -19.62, -5.69, 2.27, 1.81, 8.49, repro,
2004-10-05,-41.66, -20.92, -11.28, 2.22, 1.84, 8.55, repro,
2004-10-06,-41.05, -21.36, -5.81, 2.20, 1.83, 8.70, repro,
2004-10-07,-40.41, -22.14, -1.78, 2.17, 1.81, 8.57, repro,
2004-10-08,-39.96, -21.53, -7.31, 2.27, 1.89, 8.93, repro,
2004-10-09,-41.58, -21.67, 0.72, 2.18, 1.94, 8.93, repro,
2004-10-10,-41.82, -21.68, 2.67, 2.21, 1.80, 8.47, repro,
2004-10-11,-41.83, -21.66, 8.67, 2.38, 1.90, 9.00, repro,
2004-10-12,-42.07, -20.72, -6.11, 2.53, 2.03, 9.99, repro,
2004-10-13,-42.09, -20.41, -1.00, 2.29, 1.88, 9.23, repro,
2004-10-14,-42.50, -21.17, 0.20, 2.20, 1.79, 8.47, repro,
2004-10-15,-43.35, -20.95, -8.48, 2.18, 1.78, 8.30, repro,
2004-10-16,-43.24, -22.19, 0.51, 2.08, 1.74, 8.19, repro,
2004-10-17,-46.64, -23.51, -8.74, 2.12, 1.74, 8.22, repro,
2004-10-18,-45.84, -23.36, 6.47, 2.17, 1.84, 8.71, repro,
2004-10-19,-45.09, -27.02, -4.70, 2.50, 2.01, 9.79, repro,
2004-10-20,-40.14, -24.04, -9.36, 2.23, 1.80, 8.50, repro,
2004-10-21,-42.95, -23.24, -0.54, 2.38, 1.92, 9.00, repro,
2004-10-22,-41.34, -21.64, -0.68, 2.24, 1.81, 8.56, repro,
2004-10-23,-42.29, -21.65, 4.14, 2.11, 1.75, 8.14, repro,
2004-10-24,-39.81, -20.92, 2.18, 2.15, 1.76, 8.31, repro,
2004-10-25,-41.14, -22.03, 6.48, 2.25, 1.86, 8.60, repro,
2004-10-26,-42.77, -23.98, 5.36, 2.24, 1.81, 8.59, repro,
2004-10-27,-41.41, -21.91, 5.49, 2.34, 1.84, 9.06, repro,
2004-10-28,-40.62, -21.70, 9.92, 2.12, 1.78, 8.29, repro,
2004-10-29,-40.97, -20.45, -1.70, 2.15, 1.83, 8.44, repro,
2004-10-30,-41.33, -21.07, 14.14, 2.29, 1.86, 8.89, repro,
2004-10-31,-39.09, -19.99, 0.68, 2.23, 1.79, 8.36, repro,
2004-11-01,-39.03, -20.16, -1.05, 2.23, 1.83, 8.62, repro,
2004-11-02,-40.84, -19.96, -7.09, 2.11, 1.78, 8.27, repro,
2004-11-03,-41.85, -20.38, 4.88, 2.15, 1.81, 8.54, repro,
2004-11-04,-42.73, -22.46, -2.02, 2.27, 1.81, 8.55, repro,
2004-11-05,-40.31, -19.96, 7.87, 2.32, 1.94, 9.02, repro,
2004-11-06,-39.32, -19.72, -0.72, 2.18, 1.80, 8.37, repro,
2004-11-07,-40.15, -19.37, -3.58, 2.35, 2.00, 9.45, repro,
2004-11-08,-40.26, -20.75, 5.31, 2.23, 1.88, 8.90, repro,
2004-11-09,-40.42, -19.27, 7.98, 2.25, 1.88, 8.72, repro,
2004-11-10,-40.86, -21.51, -4.43, 2.48, 2.34, 10.41, repro,
2004-11-11,-41.05, -19.59, -11.26, 2.14, 1.78, 8.22, repro,
2004-11-12,-39.14, -20.30, -5.59, 2.14, 1.76, 8.37, repro,
2004-11-13,-40.51, -18.99, -1.02, 2.41, 1.94, 9.53, repro,
2004-11-14,-39.39, -20.26, -10.26, 2.80, 2.22, 10.50, repro,
2004-11-15,-40.49, -20.38, -2.14, 2.21, 1.83, 8.52, repro,
2004-11-16,-41.73, -20.06, -4.91, 2.14, 1.83, 8.57, repro,
2004-11-17,-41.25, -20.50, -1.66, 2.19, 1.76, 8.20, repro,
2004-11-18,-41.01, -18.97, -5.07, 2.16, 1.81, 8.37, repro,
2004-11-19,-39.67, -18.50, -10.61, 2.31, 1.93, 9.04, repro,
2004-11-20,-42.03, -17.21, 2.19, 2.19, 1.81, 8.57, repro,
2004-11-21,-43.53, -20.51, 11.02, 2.15, 1.90, 8.60, repro,
2004-11-22,-42.58, -21.71, -2.25, 2.09, 1.76, 8.23, repro,
2004-11-23,-41.06, -19.82, 1.18, 2.24, 1.78, 8.42, repro,
2004-11-24,-40.98, -17.57, 2.12, 2.21, 1.81, 8.54, repro,
2004-11-25,-40.57, -18.91, 9.24, 2.34, 2.08, 9.61, repro,
2004-11-26,-41.21, -19.10, 6.53, 2.14, 1.90, 8.76, repro,
2004-11-27,-43.15, -21.97, 2.13, 2.16, 1.81, 8.44, repro,
2004-11-28,-41.95, -20.33, -3.86, 2.08, 1.73, 8.15, repro,
2004-11-29,-40.92, -18.95, -4.21, 2.11, 1.79, 8.34, repro,
2004-11-30,-40.03, -18.39, -3.10, 2.20, 1.81, 8.41, repro,
2004-12-01,-39.80, -18.08, -6.67, 2.22, 1.82, 8.69, repro,
2004-12-02,-42.24, -18.97, -1.76, 2.27, 1.78, 8.62, repro,
2004-12-03,-41.37, -19.14, -1.50, 2.23, 1.87, 8.73, repro,
2004-12-04,-42.26, -20.66, -1.52, 2.11, 1.74, 8.21, repro,
2004-12-05,-42.70, -19.66, -6.36, 2.11, 1.75, 8.30, repro,
2004-12-06,-43.05, -18.88, -2.70, 2.24, 1.82, 8.73, repro,
2004-12-07,-44.42, -22.89, -1.00, 2.19, 1.84, 8.55, repro,
2004-12-08,-40.58, -19.60, -0.59, 2.10, 1.74, 8.21, repro,
2004-12-09,-39.76, -18.52, -5.51, 2.15, 1.87, 8.56, repro,
2004-12-10,-39.82, -17.54, -2.08, 2.20, 1.82, 8.75, repro,
2004-12-11,-41.37, -19.53, -0.23, 2.21, 1.83, 8.75, repro,
2004-12-12,-40.21, -17.44, -15.40, 2.29, 1.83, 8.92, repro,
2004-12-13,-38.59, -20.13, 1.12, 2.17, 1.76, 8.29, repro,
2004-12-14,-40.94, -18.22, -8.96, 2.14, 1.79, 8.31, repro,
2004-12-15,-38.73, -18.57, -8.61, 2.14, 1.76, 8.29, repro,
2004-12-16,-40.98, -19.35, -4.73, 2.21, 1.75, 8.55, repro,
2004-12-17,-40.41, -17.96, -4.12, 2.15, 1.77, 8.31, repro,
2004-12-18,-40.35, -19.53, -3.05, 2.15, 1.80, 8.40, repro,
2004-12-19,-40.86, -19.13, -4.46, 2.23, 1.81, 8.37, repro,
2004-12-20,-40.45, -18.74, -3.40, 2.10, 1.75, 8.18, repro,
2004-12-21,-41.33, -18.28, 3.84, 2.14, 1.75, 8.40, repro,
2004-12-22,-40.73, -18.43, -6.71, 2.18, 1.76, 8.50, repro,
2004-12-23,-40.24, -18.47, -6.63, 2.10, 1.73, 8.11, repro,
2004-12-24,-40.81, -19.45, -2.12, 2.06, 1.74, 8.12, repro,
2004-12-25,-42.30, -19.45, 2.21, 2.09, 1.74, 8.20, repro,
2004-12-26,-41.60, -19.48, -6.59, 2.22, 1.76, 8.49, repro,
2004-12-27,-44.21, -20.64, -12.66, 2.30, 1.80, 8.75, repro,
2004-12-28,-42.54, -17.89, 1.25, 2.36, 1.82, 8.77, repro,
2004-12-29,-42.51, -20.43, 0.71, 2.20, 1.81, 8.72, repro,
2004-12-30,-41.83, -21.02, -11.04, 2.29, 1.79, 8.81, repro,
2004-12-31,-38.25, -15.18, 1.40, 2.29, 1.81, 8.69, repro,
2005-01-01,-41.35, -15.43, -2.31, 2.30, 1.80, 8.82, repro,
2005-01-02,-39.03, -15.95, -4.22, 2.31, 1.81, 8.90, repro,
2005-01-03,-41.02, -16.13, 0.16, 2.32, 1.81, 8.88, repro,
2005-01-04,-39.68, -14.23, -2.83, 2.27, 1.84, 8.97, repro,
2005-01-05,-38.02, -15.09, -3.43, 2.26, 1.91, 9.28, repro,
2005-01-06,-38.86, -11.42, 0.65, 2.71, 2.16, 10.52, repro,
2005-01-07,-37.22, -12.40, -0.32, 2.26, 1.82, 9.05, repro,
2005-01-08,-37.01, -16.72, -23.98, 2.17, 1.76, 8.65, repro,
2005-01-09,-39.31, -14.63, -4.58, 2.40, 1.92, 9.38, repro,
2005-01-10,-41.17, -19.33, -15.61, 2.19, 1.82, 8.75, repro,
2005-01-11,-40.60, -12.96, -5.08, 2.23, 1.93, 9.14, repro,
2005-01-12,-39.18, -10.72, 3.93, 2.21, 1.85, 8.89, repro,
2005-01-13,-37.00, -10.33, -5.99, 2.26, 1.87, 8.94, repro,
2005-01-14,-38.62, -11.41, -11.83, 2.26, 1.87, 8.79, repro,
2005-01-15,-39.05, -12.72, -9.06, 2.19, 1.86, 8.81, repro,
2005-01-16,-39.07, -12.04, -21.43, 2.14, 1.79, 8.66, repro,
2005-01-17,-39.43, -11.73, -11.73, 2.68, 2.09, 10.44, repro,
2005-01-18,-38.65, -10.02, -10.49, 2.19, 1.82, 8.79, repro,
2005-01-19,-38.90, -11.46, -8.58, 2.26, 1.86, 8.99, repro,
2005-01-20,-38.43, -12.51, 0.20, 2.22, 1.82, 8.91, repro,
2005-01-21,-40.16, -12.54, -3.84, 2.23, 1.86, 8.82, repro,
2005-01-22,-39.67, -11.20, -3.98, 2.25, 1.88, 9.16, repro,
2005-01-23,-38.99, -11.52, -1.95, 2.19, 1.80, 8.76, repro,
2005-01-24,-43.09, -13.29, 1.95, 2.22, 1.83, 8.87, repro,
2005-01-25,-40.52, -13.36, -4.79, 2.19, 1.86, 8.98, repro,
2005-01-26,-42.56, -15.02, -11.01, 2.31, 1.89, 9.18, repro,
2005-01-27,-38.67, -12.35, -1.86, 2.24, 1.86, 9.13, repro,
2005-01-28,-40.62, -17.01, -10.93, 2.19, 1.82, 8.75, repro,
2005-01-29,-39.10, -11.42, -4.64, 2.25, 1.82, 8.75, repro,
2005-01-30,-40.31, -12.43, -4.67, 2.10, 1.70, 8.13, repro,
2005-01-31,-38.23, -11.87, -5.20, 2.20, 1.82, 8.70, repro,
2005-02-01,-38.95, -11.25, -13.07, 2.10, 1.72, 8.27, repro,
2005-02-02,-38.67, -11.75, -10.66, 2.25, 1.84, 8.78, repro,
2005-02-03,-39.69, -11.78, -5.29, 2.20, 1.81, 8.59, repro,
2005-02-04,-37.93, -10.53, -9.45, 2.65, 1.91, 9.79, repro,
2005-02-05,-39.27, -12.52, 1.50, 2.20, 1.79, 8.46, repro,
2005-02-06,-38.86, -12.25, 1.52, 2.40, 2.24, 9.65, repro,
2005-02-07,-39.05, -12.53, -6.47, 2.15, 1.78, 8.49, repro,
2005-02-08,-38.09, -11.28, -9.87, 2.26, 1.84, 8.71, repro,
2005-02-09,-39.19, -11.96, -3.21, 2.23, 1.85, 8.64, repro,
2005-02-10,-39.89, -12.00, 0.88, 2.23, 1.79, 8.51, repro,
2005-02-11,-39.23, -11.98, -4.10, 2.20, 1.83, 8.71, repro,
2005-02-12,-39.14, -14.23, -2.62, 2.39, 1.88, 9.17, repro,
2005-02-13,-37.35, -12.05, -8.20, 2.22, 1.80, 8.77, repro,
2005-02-14,-37.98, -13.44, -0.99, 2.25, 1.87, 8.84, repro,
2005-02-15,-40.62, -12.36, 1.74, 2.19, 1.73, 8.41, repro,
2005-02-16,-40.62, -15.13, -2.27, 2.22, 1.74, 8.53, repro,
2005-02-17,-40.22, -13.86, 10.51, 2.75, 1.94, 10.43, repro,
2005-02-18,-43.52, -14.00, 1.41, 2.17, 1.73, 8.67, repro,
2005-02-19,-44.82, -17.25, -0.64, 2.15, 1.71, 8.37, repro,
2005-02-20,-43.84, -15.68, -8.58, 2.35, 1.96, 9.40, repro,
2005-02-21,-43.20, -13.48, -2.97, 2.22, 1.83, 8.83, repro,
2005-02-22,-38.07, -10.12, -11.83, 2.20, 1.75, 8.53, repro,